This demonstration page uses our WeatherBlox Daily Observations layout. Learn more.

Left ArrowRight Arrow

Hourly Observations for June 18, 2018

Temp ( °F °C ) Dew Point ( °F °C ) Humidity (%) Winds ( mph kmh ) Pressure ( in mb ) Visibility ( mi km ) Precip ( " mm )
12:53 am 00:53 Clear 78 25.6 68 20 71 71 S 9 15 29.83 1010 10 16 0.00 0.00
1:53 am 01:53 Mostly Cloudy 76 24.4 68 20 77 77 WNW 3 6 29.86 1011 10 16 0.00 0.00
2:53 am 02:53 Cloudy 78 25.6 68 20 71 71 S 3 6 29.86 1011 10 16 0.00 0.00
3:53 am 03:53 Cloudy 74 23.3 71 21.7 91 91 ENE 3 6 29.87 1012 10 16 0.00 0.03
4:53 am 04:53 Mostly Clear 72 22.2 70 21.1 94 94 Calm 29.88 1012 10 16 0.00 0.00
5:53 am 05:53 Clear 72 22.2 70 21.1 94 94 SSE 3 6 29.88 1012 10 16 0.00 0.00
6:53 am 06:53 Sunny 75 23.9 68 20 79 79 S 6 9 29.88 1012 10 16 0.00 0.00
7:53 am 07:53 Sunny 76 24.4 69 20.6 79 79 S 6 9 29.88 1012 10 16 0.00 0.00
8:53 am 08:53 Sunny 80 26.7 69 20.6 69 69 S 12 19 29.89 1012 10 16 0.00 0.00
9:53 am 09:53 Sunny 82 27.8 70 21.1 67 67 SSW 10 17 29.88 1012 10 16 0.00 0.00
10:53 am 10:53 Sunny 86 30 70 21.1 59 59 SSW 13 20 29.88 1012 10 16 0.00 0.00
11:53 am 11:53 Sunny 88 31.1 70 21.1 55 55 SSW 10 17 29.87 1012 10 16 0.00 0.00
12:53 pm 12:53 Sunny 87 30.6 67 19.4 51 51 SSW 8 13 29.87 1011 10 16 0.00 0.00
1:53 pm 13:53 Sunny 91 32.8 68 20 47 47 S 13 20 29.85 1011 10 16 0.00 0.00
2:53 pm 14:53 Mostly Sunny 92 33.3 68 20 46 46 S 14 22 29.83 1010 10 16 0.00 0.00
3:53 pm 15:53 Mostly Sunny 95 35 62 16.7 34 34 SSW 17 28 29.81 1009 10 16 0.00 0.00
4:53 pm 16:53 Sunny 94 34.4 64 17.8 37 37 SW 13 20 29.78 1009 10 16 0.00 0.00
5:53 pm 17:53 Sunny 94 34.4 67 19.4 41 41 SW 10 17 29.78 1009 10 16 0.00 0.00
6:53 pm 18:53 Sunny 94 34.4 67 19.4 41 41 SSW 6 9 29.79 1009 10 16 0.00 0.00
7:51 pm 19:51 Mostly Cloudy with Thunderstorms 84 29 66 19 55 55 SSW 8 13 29.77 1008 10 16 0.00 0.03
7:53 pm 19:53 Mostly Cloudy with Thunderstorms 85 29.4 66 18.9 53 53 S 6 9 29.81 1010 10 16 0.00 0.03
8:06 pm 20:06 Partly Cloudy with Nearby Thunderstorms 84 28.9 67 19.4 57 57 SSE 8 13 29.77 1008 10 16 0.00 0.03
8:40 pm 20:40 Mostly Cloudy with Thunderstorms 77 25 66 19 69 69 S 21 33 29.83 1010 4 6 0.00 0.00
8:53 pm 20:53 Mostly Cloudy with Thunderstorms 77 25 66 18.9 69 69 SSW 14 22 29.83 1010 10 16 0.05 1.27
9:00 pm 21:00 Partly Cloudy 77 25 65 18.3 66 66 S 8 13 29.80 1009 10 16 0.00 0.03
9:53 pm 21:53 Clear 76 24.4 68 20 77 77 S 8 13 29.85 1011 10 16 0.00 0.03
10:53 pm 22:53 Clear 75 23.9 68 20 79 79 SW 7 11 29.89 1012 10 16 0.00 0.00
11:53 pm 23:53 Clear 73 22.8 65 18.3 76 76 SSW 5 7 29.89 1012 10 16 0.00 0.00

Powered by AerisWeather